User: anonymous   Login
Location: State Camp
(41.2367°N, 77.7828°W)
Time: 07:05:46
(UTC-05:00)
Language:

Cosmos 1674 Rocket - Orbit

View from above orbital plane
View from above orbital plane
View from above satellite
View from above satellite

Ground track
Ground track

The orbit data is extracted from the following two-line orbital elements,

1 15945U 85069B   15027.55804887  .00000349  00000-0  39370-4 0  8803
2 15945 082.5252 229.1586 0018417 277.8730 135.9081 14.83572105591781
Epoch (UTC): 27 January 2015 13:23:35
Eccentricity: 0.0018417
inclination: 82.5252°
perigee height: 605 km
apogee height: 631 km
right ascension of ascending node: 229.1586°
argument of perigee: 277.8730°
revolutions per day: 14.83572105
mean anomaly at epoch: 135.9081°
orbit number at epoch: 59178

The dashed part of the orbit path shows where the satellite is in the earth's shadow,  

DLR